Weather History for KGBG - March, 2014

Change the Weather History Date:

Tuesday, March 25, 2014

  Actual Average Record
Temperature  
Mean Temperature 22 °F -  
Max Temperature 29 °F 49 °F 76 °F (2012)
Min Temperature 13 °F 31 °F 6 °F (1960)
Degree Days  
Heating Degree Days 44    
Moisture  
Dew Point 17 °F    
Average Humidity 78    
Maximum Humidity 100    
Minimum Humidity 53    
Precipitation  
Precipitation 0.00 in - - ()
Sea Level Pressure  
Sea Level Pressure 30.20 in    
Wind  
Wind Speed 11 mph (WNW)    
Max Wind Speed 22 mph    
Max Gust Speed 32 mph    
Visibility 10 miles    
Events Snow    
Averages and records for this station are not official NWS values.
T = Trace of Precipitation, MM = Missing Value Source: NWS Daily Summary

Daily Weather History Graph

Daily Weather History Graph

Search for Another Location

Airport or City:

Trip Planner

Search our weather history database for the weather conditions in past years. The results will help you decide how hot, cold, wet, or windy it might be!

Date:

Astronomy

Mar. 25, 2014 Rise Set
Actual Time 6:56 AM CDT 7:19 PM CDT
Civil Twilight 6:29 AM CDT 7:46 PM CDT
Nautical Twilight 5:56 AM CDT 8:19 PM CDT
Astronomical Twilight 5:23 AM CDT 8:52 PM CDT
Moon 3:20 AM CDT (3/25) 1:48 PM CDT (3/25)
Length of Visible Light 13h 17m
Length of Day
12h 22m
Waning Crescent, 32% of the Moon is Illuminated
Mar 25
Waning Crescent
Mar 30
New
Apr 7
First Quarter
Apr 15
Full
Apr 22
Last Quarter

Hourly Weather History & Observations

Time (CDT) Temp. Windchill Dew Point Humidity Pressure Visibility Wind Dir Wind Speed Gust Speed Precip Events Conditions
12:15 AM 30.6 °F 23.1 °F 30.6 °F 100% 30.12 in 7.0 mi West 8.1 mph - N/A   Overcast
12:35 AM 30.7 °F 22.6 °F 30.6 °F 99% 30.10 in 7.0 mi West 9.2 mph - N/A Snow Light Snow
12:55 AM 29.8 °F 17.7 °F 29.8 °F 100% 30.11 in 0.2 mi WNW 18.4 mph 28.8 mph N/A Snow Heavy Snow
1:15 AM 27.3 °F 17.1 °F 27.0 °F 99% 30.11 in 4.0 mi NNW 11.5 mph 16.1 mph N/A Snow Light Snow
1:35 AM 27.3 °F 20.9 °F 26.6 °F 97% 30.11 in 10.0 mi NW 5.8 mph - N/A   Overcast
1:55 AM 26.8 °F 20.2 °F 26.2 °F 98% 30.11 in 10.0 mi NW 5.8 mph - N/A   Overcast
2:15 AM 25.7 °F 18.0 °F 25.2 °F 98% 30.11 in 10.0 mi WNW 6.9 mph - N/A   Mostly Cloudy
2:35 AM 24.3 °F 17.3 °F 23.9 °F 99% 30.11 in 10.0 mi WNW 5.8 mph - N/A   Scattered Clouds
2:55 AM 22.3 °F 16.1 °F 22.3 °F 100% 30.11 in 10.0 mi WNW 4.6 mph - N/A   Clear
3:15 AM 20.3 °F 11.5 °F 20.3 °F 100% 30.11 in 10.0 mi WNW 6.9 mph - N/A   Scattered Clouds
3:35 AM 21.6 °F 12.1 °F 20.1 °F 94% 30.10 in 10.0 mi WNW 8.1 mph - N/A   Scattered Clouds
3:55 AM 22.1 °F 12.8 °F 19.0 °F 88% 30.11 in 10.0 mi WNW 8.1 mph - N/A   Clear
4:15 AM 20.7 °F 13.0 °F 18.0 °F 89% 30.11 in 10.0 mi WNW 5.8 mph - N/A   Clear
4:35 AM 19.4 °F 11.5 °F 17.1 °F 91% 30.11 in 10.0 mi WNW 5.8 mph - N/A   Clear
4:55 AM 17.6 °F 9.3 °F 16.0 °F 93% 30.12 in 10.0 mi West 5.8 mph - N/A   Clear
5:15 AM 16.0 °F 7.4 °F 15.4 °F 98% 30.12 in 10.0 mi West 5.8 mph - N/A   Clear
5:35 AM 13.8 °F 4.9 °F 13.6 °F 99% 30.12 in 10.0 mi West 5.8 mph - N/A   Clear
5:55 AM 15.1 °F 6.4 °F 15.1 °F 100% 30.12 in 10.0 mi WNW 5.8 mph - N/A   Clear
6:15 AM 14.9 °F 5.0 °F 14.7 °F 99% 30.12 in 10.0 mi West 6.9 mph - N/A   Clear
6:35 AM 14.0 °F 3.9 °F 14.0 °F 100% 30.13 in 10.0 mi West 6.9 mph - N/A   Clear
6:55 AM 15.1 °F 4.2 °F 14.9 °F 99% 30.14 in 10.0 mi West 8.1 mph - N/A   Clear
7:15 AM 16.9 °F 5.5 °F 16.9 °F 100% 30.15 in 10.0 mi West 9.2 mph - N/A   Clear
7:35 AM 19.0 °F 8.2 °F 18.5 °F 98% 30.15 in 10.0 mi West 9.2 mph - N/A   Scattered Clouds
7:55 AM 19.6 °F 8.1 °F 18.5 °F 96% 30.16 in 10.0 mi WNW 10.4 mph - N/A   Clear
8:15 AM 20.5 °F 8.6 °F 18.3 °F 91% 30.16 in 10.0 mi WNW 11.5 mph - N/A   Clear
8:35 AM 22.1 °F 10.6 °F 18.5 °F 86% 30.17 in 10.0 mi WNW 11.5 mph 17.3 mph N/A   Scattered Clouds
8:55 AM 23.2 °F 10.8 °F 18.5 °F 82% 30.17 in 10.0 mi WNW 13.8 mph 18.4 mph N/A   Clear
9:15 AM 23.7 °F 11.5 °F 18.0 °F 79% 30.18 in 10.0 mi WNW 13.8 mph - N/A   Clear
9:35 AM 25.0 °F 12.2 °F 18.3 °F 76% 30.18 in 10.0 mi WNW 16.1 mph 23.0 mph N/A   Clear
9:55 AM 25.3 °F 11.4 °F 16.2 °F 68% 30.19 in 7.0 mi NW 19.6 mph 26.5 mph N/A   Scattered Clouds
10:15 AM 24.8 °F 11.9 °F 14.0 °F 64% 30.21 in 10.0 mi NW 16.1 mph 26.5 mph N/A   Scattered Clouds
10:35 AM 25.0 °F 11.7 °F 14.9 °F 66% 30.21 in 10.0 mi NW 17.3 mph 32.2 mph N/A   Clear
10:55 AM 25.3 °F 11.8 °F 14.7 °F 64% 30.22 in 10.0 mi NW 18.4 mph 26.5 mph N/A   Scattered Clouds
11:15 AM 24.8 °F 10.0 °F 14.4 °F 65% 30.23 in 10.0 mi NW 21.9 mph 26.5 mph N/A   Scattered Clouds
11:35 AM 24.8 °F 11.1 °F 14.2 °F 64% 30.24 in 10.0 mi WNW 18.4 mph 27.6 mph N/A   Scattered Clouds
11:55 AM 25.2 °F 10.4 °F 14.4 °F 64% 30.24 in 10.0 mi WNW 21.9 mph 26.5 mph N/A   Scattered Clouds
12:15 PM 25.7 °F 11.5 °F 15.3 °F 65% 30.24 in 10.0 mi WNW 20.7 mph 27.6 mph N/A   Scattered Clouds
12:35 PM 26.1 °F 13.1 °F 14.2 °F 61% 30.24 in 10.0 mi WNW 17.3 mph 26.5 mph N/A   Scattered Clouds
12:55 PM 25.7 °F 11.5 °F 15.4 °F 65% 30.25 in 10.0 mi WNW 20.7 mph 27.6 mph N/A   Mostly Cloudy
1:15 PM 26.2 °F 14.7 °F 15.3 °F 63% 30.25 in 10.0 mi WNW 13.8 mph 25.3 mph N/A   Mostly Cloudy
1:35 PM 26.4 °F 12.8 °F 15.4 °F 63% 30.25 in 10.0 mi WNW 19.6 mph 25.3 mph N/A   Overcast
1:55 PM 26.1 °F 11.6 °F 15.3 °F 64% 30.24 in 10.0 mi West 21.9 mph 28.8 mph N/A   Mostly Cloudy
2:15 PM 26.2 °F 13.4 °F 14.7 °F 62% 30.24 in 10.0 mi WNW 17.3 mph 28.8 mph N/A   Overcast
2:35 PM 27.9 °F 15.9 °F 15.6 °F 60% 30.23 in 10.0 mi WNW 16.1 mph 26.5 mph N/A   Mostly Cloudy
2:55 PM 28.0 °F 15.3 °F 15.4 °F 59% 30.23 in 10.0 mi WNW 18.4 mph 25.3 mph N/A   Mostly Cloudy
3:15 PM 27.7 °F 14.8 °F 14.7 °F 58% 30.23 in 10.0 mi WNW 18.4 mph 28.8 mph N/A   Mostly Cloudy
3:35 PM 27.9 °F 15.1 °F 14.5 °F 57% 30.23 in 10.0 mi WNW 18.4 mph 28.8 mph N/A   Scattered Clouds
3:55 PM 27.3 °F 13.6 °F 13.3 °F 56% 30.23 in 10.0 mi WNW 20.7 mph 25.3 mph N/A   Mostly Cloudy
4:15 PM 26.8 °F 14.5 °F 13.6 °F 58% 30.23 in 10.0 mi WNW 16.1 mph 25.3 mph N/A   Mostly Cloudy
4:35 PM 27.7 °F 15.6 °F 13.1 °F 54% 30.23 in 10.0 mi WNW 16.1 mph 25.3 mph N/A   Mostly Cloudy
4:55 PM 27.9 °F 17.3 °F 12.9 °F 54% 30.23 in 10.0 mi WNW 12.7 mph 23.0 mph N/A   Overcast
5:15 PM 27.3 °F 14.8 °F 13.1 °F 55% 30.24 in 10.0 mi WNW 17.3 mph 23.0 mph N/A   Scattered Clouds
5:35 PM 28.0 °F 15.3 °F 12.9 °F 53% 30.24 in 10.0 mi West 18.4 mph 23.0 mph N/A   Scattered Clouds
5:55 PM 27.3 °F 14.0 °F 13.1 °F 55% 30.24 in 10.0 mi WNW 19.6 mph 25.3 mph N/A   Scattered Clouds
6:15 PM 25.7 °F 13.1 °F 13.8 °F 61% 30.24 in 10.0 mi WNW 16.1 mph - N/A   Scattered Clouds
6:35 PM 26.1 °F 14.0 °F 14.2 °F 61% 30.24 in 10.0 mi WNW 15.0 mph - N/A   Scattered Clouds
6:55 PM 25.3 °F 13.6 °F 14.0 °F 62% 30.24 in 10.0 mi West 13.8 mph - N/A   Scattered Clouds
7:15 PM 24.6 °F 13.2 °F 14.2 °F 65% 30.24 in 10.0 mi WNW 12.7 mph - N/A   Clear
7:35 PM 23.7 °F 12.6 °F 14.9 °F 69% 30.25 in 10.0 mi WNW 11.5 mph 17.3 mph N/A   Clear
7:55 PM 23.4 °F 13.5 °F 14.7 °F 70% 30.25 in 10.0 mi WNW 9.2 mph - N/A   Clear
8:15 PM 23.0 °F 13.9 °F 14.0 °F 68% 30.25 in 10.0 mi WNW 8.1 mph - N/A   Clear
8:35 PM 22.1 °F 14.7 °F 14.4 °F 72% 30.25 in 10.0 mi NW 5.8 mph - N/A   Clear
8:55 PM 21.0 °F 13.4 °F 14.5 °F 76% 30.26 in 10.0 mi WNW 5.8 mph - N/A   Clear
9:15 PM 20.5 °F 14.0 °F 14.0 °F 76% 30.27 in 10.0 mi WNW 4.6 mph - N/A   Clear
9:35 PM 19.4 °F 14.3 °F 14.0 °F 80% 30.27 in 10.0 mi WNW 3.5 mph - N/A   Clear
9:55 PM 19.4 °F - 13.8 °F 79% 30.27 in 10.0 mi Calm Calm - N/A   Clear
10:15 PM 18.3 °F 13.1 °F 13.5 °F 81% 30.27 in 10.0 mi West 3.5 mph - N/A   Clear
10:35 PM 18.5 °F 13.3 °F 13.6 °F 81% 30.27 in 10.0 mi West 3.5 mph - N/A   Clear
10:55 PM 18.9 °F - 13.6 °F 80% 30.27 in 10.0 mi Calm Calm - N/A   Clear
11:15 PM 18.1 °F - 14.0 °F 84% 30.27 in 10.0 mi Calm Calm - N/A   Clear
11:35 PM 16.3 °F - 14.0 °F 90% 30.27 in 10.0 mi Calm Calm - N/A   Clear
11:55 PM 16.5 °F - 14.7 °F 93% 30.27 in 10.0 mi Calm Calm - N/A   Clear